Location: Arroyo Grande
(40.2671°N, 4.2512°W)
Time: 14:36:30
(UTC+00:00)

DMSP 5D-2 F-14 - Visible Passes

Search period start: 01 October 2023 00:00
Search period end: 11 October 2023 00:00
Orbit: 831 x 845 km, 98.9° (Epoch: 01 October)

Date Brightness Start Highest point End Pass type
(mag) Time Alt. Az. Time Alt. Az. Time Alt. Az.
01 Oct 6.4 18:25:36 10° E 18:27:50 13° ENE 18:30:04 10° NNE visible
01 Oct 4.6 20:05:45 46° SSE 20:07:27 90° W 20:12:54 10° NNW visible
01 Oct 7.4 21:47:45 10° W 21:48:34 10° W 21:49:23 10° W visible
02 Oct 4.6 19:50:18 42° SE 19:52:03 67° ENE 19:57:25 10° N visible
02 Oct 7.1 21:32:04 15° WSW 21:32:56 15° W 21:36:00 10° NW visible
03 Oct 4.9 19:34:52 35° ESE 19:36:41 48° ENE 19:41:52 10° N visible
03 Oct 6.7 21:16:37 21° WSW 21:17:20 21° W 21:21:24 10° NW visible
04 Oct 5.3 19:19:25 27° ESE 19:21:21 35° ENE 19:26:14 10° N visible
04 Oct 6.2 21:01:11 29° WSW 21:01:46 29° W 21:06:27 10° NW visible
05 Oct 5.6 19:03:59 21° E 19:06:02 26° ENE 19:10:29 10° N visible
05 Oct 5.7 20:45:44 39° WSW 20:46:14 40° W 20:51:20 10° NNW visible
06 Oct 6.0 18:48:32 16° E 18:50:46 20° ENE 18:54:35 10° NNE visible
06 Oct 5.1 20:30:18 54° WSW 20:30:44 56° WSW 20:36:05 10° NNW visible
07 Oct 6.3 18:33:05 11° E 18:35:33 15° ENE 18:38:26 10° NNE visible
07 Oct 4.7 20:14:50 72° SSW 20:15:17 78° WSW 20:20:44 10° NNW visible
08 Oct 6.5 18:19:14 10° ENE 18:20:22 11° ENE 18:21:30 10° NE visible
08 Oct 4.5 19:59:24 72° ESE 19:59:52 78° ENE 20:05:18 10° N visible
08 Oct 7.3 21:41:09 13° W 21:41:09 13° W 21:43:11 10° WNW visible
09 Oct 4.7 19:43:57 54° E 19:44:28 56° ENE 19:49:47 10° N visible
09 Oct 7.0 21:25:42 18° W 21:25:42 18° W 21:28:53 10° NW visible
10 Oct 5.0 19:28:30 40° E 19:29:07 41° ENE 19:34:10 10° N visible
10 Oct 6.6 21:10:16 25° W 21:10:16 25° W 21:14:05 10° NW visible
